This is the latest recevied weather packets stored in our database for station/object KC4JES. If no packets are shown the sender has not sent any weather packets the latest 10 day(s).
| Time | Temp. | Humidity | Pressure | Rain* | Wind** | Luminosity | Snow |
|---|---|---|---|---|---|---|---|
| 1777638115 | 20.56° C | 99% | 1012.1 hPa | 0 mm | - | 62 W/m² | - |
| 1777637812 | 20.56° C | 99% | 1012.1 hPa | 0 mm | - | 62 W/m² | - |
| 1777637508 | 20° C | 99% | 1011.9 hPa | 0 mm | - | 62 W/m² | - |
| 1777637206 | 20° C | 99% | 1012 hPa | 0 mm | - | 58 W/m² | - |
| 1777636903 | 20° C | 99% | 1012 hPa | 0 mm | - | 53 W/m² | - |
| 1777636598 | 20° C | 99% | 1011.8 hPa | 0 mm | - | 42 W/m² | - |
| 1777636295 | 20° C | 99% | 1011.7 hPa | 0 mm | - | 38 W/m² | - |
| 1777635990 | 20° C | 99% | 1012 hPa | 0 mm | - | 36 W/m² | - |
| 1777635686 | 20° C | 99% | 1011.8 hPa | 0 mm | - | 32 W/m² | - |
| 1777635382 | 20° C | 99% | 1011.7 hPa | 0 mm | - | 25 W/m² | - |
| 1777635079 | 20° C | 99% | 1011.8 hPa | 0 mm | - | 19 W/m² | - |
| 1777634775 | 19.44° C | 99% | 1011.6 hPa | 0 mm | - | 12 W/m² | - |
| 1777634473 | 19.44° C | 98% | 1011.7 hPa | 0 mm | - | 10 W/m² | - |
| 1777634169 | 19.44° C | 99% | 1011.6 hPa | 0 mm | - | 7 W/m² | - |
| 1777633866 | 20° C | 99% | 1011.5 hPa | 0 mm | - | 6 W/m² | - |
| 1777633563 | 20° C | 99% | 1011.6 hPa | 0 mm | - | 4 W/m² | - |
| 1777633261 | 19.44° C | 99% | 1011.6 hPa | 0 mm | - | 5 W/m² | - |
| 1777632958 | 20° C | 99% | 1011.6 hPa | 0 mm | - | 2 W/m² | - |
| 1777632654 | 20° C | 99% | 1011.8 hPa | 0 mm | - | 2 W/m² | - |
| 1777632351 | 20° C | 99% | 1011.5 hPa | 0 mm | - | 1 W/m² | - |
| 1777632049 | 20° C | 99% | 1011.5 hPa | 0 mm | - | 1 W/m² | - |
| 1777631746 | 20° C | 99% | 1011.5 hPa | 0 mm | - | 0 W/m² | - |
| 1777631443 | 20° C | 99% | 1011.3 hPa | 0 mm | - | 0 W/m² | - |
| 1777631140 | 20° C | 99% | 1011.1 hPa | 0 mm | - | 0 W/m² | - |
| 1777630838 | 20° C | 99% | 1011.1 hPa | 0 mm | - | 0 W/m² | - |
* Rain latest hour (hover to see other rain measurements)
** Current wind speed in m/s (hover to see current wind gust speed)